SCP
0 0 0 0 0 1 1 1 1 0 -0 3 1 1 1 1 1 1 1 0 0 0 0 0 0 0 0 0 0 0 0 0
0 0 0 0 0 0 1 3 3 1 0 2 2 1 1 1 1 1 1 1 1 0 0 0 0 0 0 0 0 0 0 0
0 0 0 0 0 0 1 1 2 3 2 2 2 1 1 1 1 1 1 1 2 2 0 0 0 0 0 0 0 0 0 0
0 0 0 0 0 0 0 4 5 4 3 2 5 3 2 2 1 1 1 2 2 1 2 1 1 0 0 0 0 0 0 0
0 0 0 0 0 0 0 0 8 6 5 3 4 5 3 2 2 3 1 1 3 3 2 2 1 1 1 0 0 1 1 0
0 0 0 0 0 0 1 0 2 7 6 6 5 6 4 3 2 2 3 1 3 5 3 2 2 4 2 3 2 1 1 0
0 0 0 0 0 0 1 1 3 6 6 7 8 5 7 6 6 2 4 3 3 6 3 2 2 4 3 3 3 1 1 1
0 0 0 0 0 0 0 1 1 3 7 7 7 6 5 5 4 5 4 6 5 6 3 3 3 2 2 2 1 1 1 1
0 0 0 0 0 1 0 0 1 1 5 6 6 6 6 5 5 4 4 6 6 4 6 3 5 2 3 4 3 2 1 2
0 0 0 0 0 0 1 1 -1 -1 2 5 5 5 6 5 5 6 6 5 4 4 2 3 3 3 2 4 2 1 2 2
0 0 0 0 0 0 1 2 3 2 -1 1 4 6 6 5 5 5 4 5 5 4 3 2 3 3 2 2 5 2 2 2
0 0 0 0 0 0 0 1 2 1 1 1 2 4 6 6 5 6 6 4 6 6 6 4 3 4 2 4 3 3 4 3
0 0 0 0 0 0 0 0 0 0 1 1 1 2 3 5 6 5 5 7 6 6 8 7 6 7 5 6 3 7 5 4
0 0 0 0 0 0 0 0 0 0 0 1 1 2 3 5 5 7 7 7 9 6 8 9 9 6 10 7 8 7 6 4
0 0 0 0 0 0 0 0 0 0 0 0 1 1 2 4 4 6 6 7 8 8 9 11 11 10 7 9 8 9 8 6
0 0 0 0 0 0 0 0 0 0 0 0 1 1 3 4 5 5 6 6 7 7 8 8 10 7 8 11 10 10 8 7
0 0 0 0 0 0 0 0 0 0 0 0 0 0 1 3 4 5 4 5 5 3 4 1 0 3 6 10 9 9 8 8
0 0 0 0 0 0 0 1 1 0 0 0 0 0 1 1 2 3 3 3 2 0 1 0 0 0 2 5 7 7 6 6
0 0 0 0 0 0 0 0 0 0 0 0 0 0 0 1 1 2 2 0 0 0 0 0 0 0 2 2 1 4 4 3
0 0 0 0 0 0 0 0 0 0 0 0 0 0 0 0 0 1 0 0 0 0 0 0 0 0 0 1 0 1 2 3
Wind_Speed_500mb
15 16 24 18 30 34 40 42 33 27 39 48 35 49 52 55 55 55 52 49 41 35 37 40 41 38 35 32 28 24 21 16
29 32 31 29 26 36 40 48 43 38 34 49 47 40 57 60 59 59 58 56 46 46 47 43 41 44 39 36 31 27 25 19
38 38 40 35 26 31 48 45 41 37 41 46 45 38 46 46 53 59 61 57 53 54 46 41 37 42 42 40 32 24 24 26
33 34 40 36 30 37 26 43 40 43 48 55 51 51 46 56 49 56 61 64 63 56 59 53 44 37 39 30 37 35 36 31
30 31 27 38 41 36 39 18 48 58 61 53 61 60 57 58 58 59 63 66 69 66 65 62 54 43 43 41 35 42 44 33
34 31 31 32 19 15 22 34 28 53 61 64 59 60 61 63 61 62 71 68 77 78 78 69 68 54 50 49 50 52 49 43
35 32 33 21 16 17 25 33 32 37 60 66 69 61 68 59 61 66 73 77 72 81 84 78 75 72 68 69 70 64 52 39
28 31 32 34 39 38 40 41 39 38 55 57 61 66 62 79 85 66 77 80 80 86 83 83 77 80 80 77 75 67 58 45
27 29 32 31 29 40 37 38 43 44 41 60 64 70 74 71 81 84 73 83 84 82 91 85 76 77 80 76 71 59 61 52
21 21 18 18 27 35 32 25 31 48 44 49 65 68 72 74 84 78 83 85 89 85 83 91 95 83 81 79 71 65 67 62
20 21 27 23 18 17 15 21 17 24 31 41 54 67 70 70 73 78 83 79 91 89 83 79 90 97 94 87 78 77 73 71
29 25 28 31 34 37 36 40 40 38 44 46 48 64 80 90 87 83 80 84 87 85 87 84 78 85 89 91 88 82 75 61
31 32 32 33 32 29 34 40 46 52 54 53 60 67 71 82 79 85 84 82 91 95 93 95 88 91 92 86 78 88 87 80
23 26 31 30 28 33 43 39 47 49 56 66 67 75 72 76 87 87 84 92 94 102 107 112 102 93 89 83 85 79 82 73
24 31 38 40 40 35 42 44 50 41 44 68 73 69 77 77 90 90 91 90 102 111 112 111 109 106 102 86 82 86 78 68
22 31 32 34 39 42 44 45 50 56 57 62 76 72 63 74 78 100 93 93 108 104 102 108 109 113 102 104 89 81 74 70
33 38 28 36 38 39 39 49 50 53 54 62 67 68 66 64 75 83 103 97 102 96 100 101 71 83 94 90 80 70 67 62
30 27 32 32 37 43 44 41 45 48 54 59 61 64 61 62 70 82 88 96 92 70 58 109 129 128 71 72 71 65 61 60
32 35 39 40 42 44 47 45 44 46 53 58 61 63 64 59 53 66 71 78 76 39 42 32 87 46 59 63 59 56 51 51
39 43 42 43 48 50 47 49 45 49 53 58 59 59 63 64 67 52 60 71 83 57 44 38 35 60 42 39 55 49 51 55
Wind_Direction_500mb
235 262 277 269 215 204 199 216 217 203 187 222 222 220 215 215 220 224 222 223 222 229 230 229 225 225 223 223 227 236 245 252
266 249 247 256 258 222 225 202 210 205 187 223 228 239 224 224 222 224 223 219 215 218 220 234 234 227 227 229 230 233 239 244
262 260 265 261 254 251 229 219 226 233 204 207 225 235 223 229 229 227 224 218 213 208 216 224 237 229 224 229 232 236 244 240
257 255 260 258 253 250 267 220 228 242 241 205 215 227 223 226 221 230 230 222 212 218 214 208 226 233 226 223 221 220 239 239
265 265 263 253 261 250 250 235 230 235 244 236 209 217 220 227 228 221 235 223 218 212 221 215 204 228 207 230 227 218 228 239
268 269 259 260 241 236 265 264 244 236 242 247 235 220 226 221 230 228 230 235 220 213 222 221 210 204 211 210 213 219 229 230
249 257 264 266 276 247 254 252 262 256 244 249 249 238 225 224 225 230 224 232 228 217 219 224 219 211 213 215 220 224 229 232
257 244 249 256 263 282 287 273 254 248 249 245 245 250 239 230 225 231 228 233 232 222 224 220 221 217 220 226 226 229 226 220
245 240 247 251 252 276 273 281 284 266 249 244 246 247 248 236 230 228 229 226 234 229 230 227 215 223 218 218 221 222 222 210
285 302 286 279 272 257 257 279 292 297 281 251 244 249 252 250 239 229 228 232 237 240 230 231 226 223 227 223 225 222 220 217
272 285 302 315 333 332 326 317 317 303 295 274 259 250 249 244 242 239 231 231 235 237 235 232 230 218 226 224 214 219 224 220
352 356 345 330 325 325 323 315 311 315 302 289 278 257 251 249 247 238 235 231 232 234 235 231 227 218 220 225 218 219 224 221
349 338 325 317 310 312 318 308 306 311 305 297 286 272 262 254 251 242 236 234 228 232 229 237 235 216 223 220 221 218 221 215
326 311 304 302 323 311 310 315 315 303 295 289 284 276 270 257 251 245 242 238 235 229 230 233 232 219 216 219 218 217 220 224
322 315 314 315 314 306 306 311 306 309 307 306 290 276 270 263 251 247 242 240 235 235 229 226 228 225 218 214 213 217 216 224
289 291 292 297 295 304 310 305 309 303 309 305 305 281 278 266 257 250 245 242 240 239 235 234 229 222 213 213 213 217 223 225
283 275 286 292 294 299 295 294 297 306 303 308 307 304 277 277 262 261 250 245 248 248 242 237 247 224 215 207 210 209 212 215
306 300 293 293 294 291 289 288 292 298 312 305 302 307 301 292 271 267 263 253 248 252 253 254 243 229 215 203 201 206 213 214
309 307 299 298 295 296 296 297 294 297 303 304 304 309 300 296 294 271 270 254 251 260 257 220 214 238 224 216 209 204 211 219
303 295 296 296 295 293 296 297 299 301 299 297 307 299 308 300 291 291 280 266 257 263 264 247 196 220 232 213 229 217 215 222
Wind_Speed_850mb
15 16 24 18 30 34 40 42 33 27 39 48 35 49 52 55 55 55 52 49 41 35 37 40 41 38 35 32 28 24 21 16
29 32 31 29 26 36 40 48 43 38 34 49 47 40 57 60 59 59 58 56 46 46 47 43 41 44 39 36 31 27 25 19
38 38 40 35 26 31 48 45 41 37 41 46 45 38 46 46 53 59 61 57 53 54 46 41 37 42 42 40 32 24 24 26
33 34 40 36 30 37 26 43 40 43 48 55 51 51 46 56 49 56 61 64 63 56 59 53 44 37 39 30 37 35 36 31
30 31 27 38 41 36 39 18 48 58 61 53 61 60 57 58 58 59 63 66 69 66 65 62 54 43 43 41 35 42 44 33
34 31 31 32 19 15 22 34 28 53 61 64 59 60 61 63 61 62 71 68 77 78 78 69 68 54 50 49 50 52 49 43
35 32 33 21 16 17 25 33 32 37 60 66 69 61 68 59 61 66 73 77 72 81 84 78 75 72 68 69 70 64 52 39
28 31 32 34 39 38 40 41 39 38 55 57 61 66 62 79 85 66 77 80 80 86 83 83 77 80 80 77 75 67 58 45
27 29 32 31 29 40 37 38 43 44 41 60 64 70 74 71 81 84 73 83 84 82 91 85 76 77 80 76 71 59 61 52
21 21 18 18 27 35 32 25 31 48 44 49 65 68 72 74 84 78 83 85 89 85 83 91 95 83 81 79 71 65 67 62
20 21 27 23 18 17 15 21 17 24 31 41 54 67 70 70 73 78 83 79 91 89 83 79 90 97 94 87 78 77 73 71
29 25 28 31 34 37 36 40 40 38 44 46 48 64 80 90 87 83 80 84 87 85 87 84 78 85 89 91 88 82 75 61
31 32 32 33 32 29 34 40 46 52 54 53 60 67 71 82 79 85 84 82 91 95 93 95 88 91 92 86 78 88 87 80
23 26 31 30 28 33 43 39 47 49 56 66 67 75 72 76 87 87 84 92 94 102 107 112 102 93 89 83 85 79 82 73
24 31 38 40 40 35 42 44 50 41 44 68 73 69 77 77 90 90 91 90 102 111 112 111 109 106 102 86 82 86 78 68
22 31 32 34 39 42 44 45 50 56 57 62 76 72 63 74 78 100 93 93 108 104 102 108 109 113 102 104 89 81 74 70
33 38 28 36 38 39 39 49 50 53 54 62 67 68 66 64 75 83 103 97 102 96 100 101 71 83 94 90 80 70 67 62
30 27 32 32 37 43 44 41 45 48 54 59 61 64 61 62 70 82 88 96 92 70 58 109 129 128 71 72 71 65 61 60
32 35 39 40 42 44 47 45 44 46 53 58 61 63 64 59 53 66 71 78 76 39 42 32 87 46 59 63 59 56 51 51
39 43 42 43 48 50 47 49 45 49 53 58 59 59 63 64 67 52 60 71 83 57 44 38 35 60 42 39 55 49 51 55
Wind_Direction_850mb
235 262 277 269 215 204 199 216 217 203 187 222 222 220 215 215 220 224 222 223 222 229 230 229 225 225 223 223 227 236 245 252
266 249 247 256 258 222 225 202 210 205 187 223 228 239 224 224 222 224 223 219 215 218 220 234 234 227 227 229 230 233 239 244
262 260 265 261 254 251 229 219 226 233 204 207 225 235 223 229 229 227 224 218 213 208 216 224 237 229 224 229 232 236 244 240
257 255 260 258 253 250 267 220 228 242 241 205 215 227 223 226 221 230 230 222 212 218 214 208 226 233 226 223 221 220 239 239
265 265 263 253 261 250 250 235 230 235 244 236 209 217 220 227 228 221 235 223 218 212 221 215 204 228 207 230 227 218 228 239
268 269 259 260 241 236 265 264 244 236 242 247 235 220 226 221 230 228 230 235 220 213 222 221 210 204 211 210 213 219 229 230
249 257 264 266 276 247 254 252 262 256 244 249 249 238 225 224 225 230 224 232 228 217 219 224 219 211 213 215 220 224 229 232
257 244 249 256 263 282 287 273 254 248 249 245 245 250 239 230 225 231 228 233 232 222 224 220 221 217 220 226 226 229 226 220
245 240 247 251 252 276 273 281 284 266 249 244 246 247 248 236 230 228 229 226 234 229 230 227 215 223 218 218 221 222 222 210
285 302 286 279 272 257 257 279 292 297 281 251 244 249 252 250 239 229 228 232 237 240 230 231 226 223 227 223 225 222 220 217
272 285 302 315 333 332 326 317 317 303 295 274 259 250 249 244 242 239 231 231 235 237 235 232 230 218 226 224 214 219 224 220
352 356 345 330 325 325 323 315 311 315 302 289 278 257 251 249 247 238 235 231 232 234 235 231 227 218 220 225 218 219 224 221
349 338 325 317 310 312 318 308 306 311 305 297 286 272 262 254 251 242 236 234 228 232 229 237 235 216 223 220 221 218 221 215
326 311 304 302 323 311 310 315 315 303 295 289 284 276 270 257 251 245 242 238 235 229 230 233 232 219 216 219 218 217 220 224
322 315 314 315 314 306 306 311 306 309 307 306 290 276 270 263 251 247 242 240 235 235 229 226 228 225 218 214 213 217 216 224
289 291 292 297 295 304 310 305 309 303 309 305 305 281 278 266 257 250 245 242 240 239 235 234 229 222 213 213 213 217 223 225
283 275 286 292 294 299 295 294 297 306 303 308 307 304 277 277 262 261 250 245 248 248 242 237 247 224 215 207 210 209 212 215
306 300 293 293 294 291 289 288 292 298 312 305 302 307 301 292 271 267 263 253 248 252 253 254 243 229 215 203 201 206 213 214
309 307 299 298 295 296 296 297 294 297 303 304 304 309 300 296 294 271 270 254 251 260 257 220 214 238 224 216 209 204 211 219
303 295 296 296 295 293 296 297 299 301 299 297 307 299 308 300 291 291 280 266 257 263 264 247 196 220 232 213 229 217 215 222